Location: Brno
(49.2000°N, 16.6330°E)
Time: 21:59:44
(UTC+02:00)

Explorer 11/Cluster Stage 4 - Pass Details

Date: 02 August 2021
Orbit: 467 x 1257 km, 28.8° (Epoch: 17 September)

Event Time Altitude Azimuth Distance (km) Brightness Sun altitude
Rises 13:30:55 0° 245° (WSW) 4,189 10.6 57.8°
Reaches altitude 10° 13:37:07 10° 211° (SSW) 3,140 10.3 57.5°
Maximum altitude 13:38:35 11° 201° (SSW) 3,063 10.3 57.5°
Drops below altitude 10° 13:40:03 10° 190° (S) 3,072 10.3 57.4°
Sets 13:45:46 0° 154° (SSE) 3,842 10.4 57.1°
